Regional Weather Roundup
Issued by NWS

Home | Current Version | Previous Version | Graphics & Text | Print | Product List | Glossary On
Versions: 1 2 3 4 5 6 7 8 9 10 11 12 13 14 15 16 17 18 19 20 21 22 23 24 25 26 27
000
ASUS45 KCYS 300810
RWRWY

WYOMING REGIONAL WEATHER ROUNDUP
NATIONAL WEATHER SERVICE CHEYENNE WY
200 AM MDT SAT APR 30 2016

NOTE:  "FAIR" INDICATES FEW OR NO CLOUDS BELOW 12,000 FEET
WITH NO SIGNIFICANT WEATHER AND/OR OBSTRUCTIONS TO VISIBILITY.

WYZ001-300900-
YELLOWSTONE NATIONAL PARK

CITY           SKY/WX    TMP DP  RH WIND       PRES   REMARKS
LK YELLOWSTONE   N/A     31  23  72 VRB3      29.99S
W YELLOWSTONE  NOT AVBL

$$
WYZ002>013-054>058-071-098>099-300900-
NORTHERN WYOMING

CITY           SKY/WX    TMP DP  RH WIND       PRES   REMARKS
JACKSON        CLOUDY    36  36 100 N8        29.94S WCI  29
CODY           CLOUDY    39  34  81 CALM      29.99S
GREYBULL       CLOUDY    46  35  65 W5        29.98S
WORLAND        CLOUDY    41  38  89 W3        29.99R
SHERIDAN       CLOUDY    41  36  82 N3        30.04S
BUFFALO          N/A    N/A N/A N/A MISG      30.02F
GILLETTE       CLOUDY    38  36  92 NE6       30.01F WCI  33
HULETT         CLOUDY    37  34  87 CALM      30.05S
NEWCASTLE      CLOUDY    37  30  75 CALM      30.01F

$$
WYZ014>020-022>026-101>103-300900-
CENTRAL WYOMING

CITY           SKY/WX    TMP DP  RH WIND       PRES   REMARKS
BIG PINEY      CLOUDY    34  28  79 SW7       29.94S WCI  28
PINEDALE       FLURRIES  32  32 100 CALM      29.95S
DUBOIS         LGT SNOW  30  28  93 SE5       29.97R WCI  25
LANDER         LGT SNOW  33  32  96 W6        29.97S FOG     WCI  28
RIVERTON       LGT RAIN  34  32  92 NW12      29.99R WCI  25
CASPER         LGT SNOW  32  31  96 N6        29.97S FOG     WCI  26
DOUGLAS        LGT SNOW  33  32  96 NE6       29.98S VSB 1   WCI  28

$$
WYZ021-027>030-104>119-300900-
SOUTHERN WYOMING

CITY           SKY/WX    TMP DP  RH WIND       PRES   REMARKS
EVANSTON       FAIR      33  26  75 E8        29.91R WCI  26
KEMMERER         N/A     32  28  86 NE3       29.94S
FORT BRIDGER   CLOUDY    32  32 100 SE6       29.95S WCI  26
ROCK SPRINGS   LGT SNOW  33  29  85 NE14      29.93S FOG     WCI  23
DIXON          LGT RAIN  34  32  91 CALM      29.87S
RAWLINS        CLOUDY    30  28  92 E10       29.91S FOG     WCI  21
SARATOGA       FLURRIES  32  32 100 N3        29.89S
LARAMIE        LGT SNOW  26  25  96 N8        29.88S FOG     WCI  18
CHEYENNE       LGT SNOW  30  28  92 N10       29.87F FOG     WCI  21
TORRINGTON     LGT SNOW  32  32 100 NW6       29.93S FOG     WCI  26
PINE BLUFFS    LGT SNOW  32  32 100 N9        29.90S WCI  24

$$




USA.gov is the U.S. government's official web portal to all federal, state and local government web resources and services.